sat.trackr.live / text

‹ back to catalog

LEMUR-2-CELIJO-SB-PK

NORAD 66781 · 2025-276DV

PAYLOAD ACTIVE UNKNOWN

§ Identity

Operator
Country
US
Launch date
2025-11-28
Launch site
AFWTR
Launch vehicle
Mass (kg)
RCS (m²)

Purposes: earth_obs

External: N2YO · Heavens-Above · Gunter

§ Orbital elements

Epoch: 2026-09-19T11:11:20.918976Z

Period
95.94 min
Inclination
97.5147°
Eccentricity
0.0002179
Mean motion
15.00922618 rev/d
Perigee alt
562.5 km
Apogee alt
565.6 km
Semi-major
6,942.2 km
B*
3.3774e-4
RAAN
330.1255°
Arg perigee
174.4258°
Mean anomaly
185.6991°
Rev number
3,676

§ Raw data

LEMUR-2-CELIJO-SB-PK1 66781U 25276DV  26262.46621434  .00004246  00000+0  33774-3 0  99902 66781  97.5147 330.1255 0002179 174.4258 185.6991 15.00922618 36767

JSON: /api/v1/satellites/66781 · /tle

For live sub-satellite position, see the globe view (requires WebGL).

§ Visibility from observer

Set your observer location to see the next 7 days of passes ≥ 10°. The values pass through the URL so the page stays shareable.

No JS? Fill the form by hand. The geolocation button needs JavaScript.